FW6321 Weather Reports


time (UTC)temp
F
wind
direction
speed
knots
gust
knots
rain 1hr
in
rain 24hr
in
rain mn
in
humidity
%
barometer
mb
20260831060809 62 181 5.2 14.8 0.04 0.08 0.04 91 1009.0
20260831060313 63 163 6.1 14.8 0.04 0.08 0.04 90 1008.9
20260831055810 63 172 7.0 14.8 0.04 0.08 0.04 89 1008.8
20260831055754 63 202 7.8 14.8 0.03 0.07 0.02 88 1008.6
20260831055249 64 196 7.0 16.5 0.00 0.04 0.00 88 1008.7
20260831054753 64 204 6.1 16.5 0.00 0.04 0.00 88 1008.6
20260831053806 63 116 6.1 14.8 0.00 0.04 0.00 89 1008.6
20260831053308 63 160 5.2 14.8 0.00 0.04 0.00 89 1008.5
20260831052809 63 218 5.2 13.9 0.00 0.04 0.00 89 1008.5
20260831052307 63 193 7.0 14.8 0.00 0.05 0.00 89 1008.5
20260831051803 63 181 6.1 14.8 0.00 0.05 0.00 89 1008.6
20260831051741 63 188 7.0 13.0 0.00 0.05 0.00 90 1008.6
20260831051509 63 254 6.1 13.9 0.00 0.05 0.00 90 1008.6
20260831050309 63 181 6.1 13.0 0.00 0.05 0.00 90 1008.5
20260831050255 63 226 5.2 9.6 0.00 0.06 0.00 90 1008.5
20260831045748 63 170 6.1 13.9 0.00 0.06 0.00 90 1008.6
20260831045233 63 174 6.1 13.9 0.00 0.06 0.00 90 1008.6
20260831044303 63 164 5.2 12.2 0.00 0.06 0.00 90 1008.7
20260831043800 63 182 5.2 12.2 0.00 0.06 0.00 90 1008.7
20260831043257 63 218 5.2 13.9 0.00 0.06 0.00 90 1008.9
20260831042757 63 156 5.2 15.6 0.00 0.06 0.00 90 1008.7
20260831042257 63 205 6.1 15.6 0.00 0.06 0.00 89 1008.5
20260831041756 63 195 7.0 15.6 0.00 0.06 0.00 89 1008.5
20260831041736 63 202 7.8 15.6 0.00 0.06 0.00 89 1008.4
20260831040756 63 172 7.0 14.8 0.00 0.06 0.00 89 1008.4
20260831040256 63 186 7.0 13.9 0.00 0.06 0.00 89 1008.5
20260831035754 63 178 7.0 13.9 0.00 0.06 0.00 89 1008.4
20260831035255 63 209 6.1 12.2 0.00 0.06 0.00 89 1008.6
20260831034755 63 188 6.1 13.0 0.00 0.06 0.00 88 1008.5
20260831034254 64 209 6.1 13.0 0.00 0.06 0.00 88 1008.7
20260831033756 64 169 7.0 14.8 0.00 0.06 0.00 88 1008.6
20260831033257 64 180 6.1 14.8 0.00 0.06 0.00 88 1008.6
20260831033236 64 210 5.2 10.4 0.00 0.06 0.00 88 1008.7
20260831032256 64 187 5.2 10.4 0.00 0.06 0.00 88 1008.7
20260831031750 64 204 6.1 13.0 0.00 0.06 0.00 88 1008.7
20260831031734 64 194 6.1 13.0 0.00 0.06 0.00 88 1008.7
20260831030748 64 219 5.2 10.4 0.00 0.06 0.00 88 1008.8
20260831030733 64 219 5.2 12.2 0.00 0.06 0.00 88 1009.1
20260831030449 64 212 5.2 10.4 0.00 0.06 0.00 88 1008.9
20260831025240 64 191 5.2 12.2 0.00 0.06 0.00 88 1009.0
20260831024740 64 243 5.2 12.2 0.00 0.06 0.00 88 1009.1
20260831024239 64 203 5.2 12.2 0.00 0.07 0.00 89 1009.1
20260831023738 64 247 5.2 13.0 0.00 0.07 0.00 89 1009.1
20260831023238 64 205 6.1 13.0 0.00 0.07 0.00 89 1009.0
20260831023213 64 200 6.1 13.9 0.00 0.07 0.00 89 1009.0
20260831022238 64 218 5.2 13.9 0.00 0.07 0.00 90 1009.0
20260831021738 64 202 3.5 8.7 0.00 0.07 0.00 90 1009.0
20260831021240 64 151 3.5 7.0 0.00 0.08 0.00 90 1008.9
20260831021223 64 172 3.5 7.0 0.00 0.08 0.00 89 1008.8
20260831020712 64 187 4.3 9.6 0.00 0.08 0.00 89 1008.9
20260831015738 64 175 4.3 9.6 0.00 0.08 0.00 89 1008.9
20260831015240 64 183 4.3 9.6 0.00 0.08 0.00 89 1008.8
20260831014737 64 189 4.3 9.6 0.00 0.08 0.00 89 1008.8
20260831014725 64 179 4.3 7.0 0.00 0.08 0.00 89 1008.9
20260831013735 64 175 3.5 7.0 0.00 0.08 0.00 89 1008.9
20260831013703 64 176 3.5 7.8 0.00 0.08 0.00 88 1009.0
20260831013437 64 172 3.5 7.8 0.00 0.08 0.00 89 1009.1
20260831012230 64 192 3.5 7.0 0.00 0.08 0.00 88 1009.1
20260831011733 64 179 3.5 7.8 0.00 0.08 0.00 88 1009.1
20260831011234 64 185 3.5 7.8 0.00 0.08 0.00 88 1009.2
20260831010732 64 208 3.5 7.0 0.00 0.08 0.00 87 1009.3
20260831010232 64 191 3.5 7.0 0.00 0.08 0.00 87 1009.3
20260831005732 64 162 3.5 6.1 0.00 0.08 0.00 87 1009.3
20260831005232 64 202 3.5 6.1 0.00 0.08 0.00 87 1009.2
20260831004732 64 179 2.6 7.8 0.00 0.08 0.00 86 1009.4
20260831004234 64 186 2.6 7.8 0.00 0.08 0.00 86 1009.3
20260831003734 64 144 3.5 6.1 0.00 0.08 0.00 86 1009.3
20260831003232 64 197 3.5 7.8 0.00 0.08 0.00 86 1009.3
20260831002731 64 197 3.5 7.8 0.00 0.08 0.00 86 1009.4
20260831002719 65 230 3.5 7.0 0.00 0.08 0.00 86 1009.5
20260831001734 65 161 3.5 7.0 0.00 0.08 0.00 86 1009.5
20260831001233 65 233 3.5 7.0 0.00 0.08 0.00 86 1009.5
20260831000733 65 192 2.6 6.1 0.00 0.08 0.00 86 1009.7
20260831000229 65 156 2.6 7.0 0.00 0.08 0.00 86 1009.6
20260830235723 65 170 3.5 7.8 0.00 0.08 0.00 86 1009.6
20260830235217 65 197 3.5 7.8 0.00 0.08 0.00 85 1009.6
20260830234716 65 170 2.6 6.1 0.00 0.08 0.00 85 1009.8
20260830234213 65 198 1.7 6.1 0.00 0.08 0.00 85 1009.8
20260830233714 65 197 2.6 6.1 0.00 0.08 0.00 84 1009.8
20260830233215 65 185 2.6 6.1 0.00 0.08 0.00 84 1009.8
20260830232712 65 229 2.6 7.0 0.00 0.08 0.00 85 1009.8
20260830232215 65 196 3.5 8.7 0.00 0.08 0.00 85 1009.8
20260830232146 65 180 2.6 8.7 0.00 0.08 0.00 85 1009.8
20260830231214 65 195 3.5 8.7 0.00 0.08 0.00 86 1009.8
20260830230714 65 170 4.3 8.7 0.00 0.08 0.00 86 1009.9
20260830230651 65 166 3.5 7.8 0.00 0.08 0.00 87 1009.8
20260830225714 65 189 3.5 7.8 0.00 0.08 0.00 87 1009.8
20260830225212 65 170 2.6 7.8 0.00 0.08 0.00 88 1009.8
20260830224712 65 179 3.5 8.7 0.00 0.08 0.00 88 1009.8
20260830224659 65 199 3.5 8.7 0.00 0.08 0.00 88 1009.9
20260830223712 65 179 3.5 7.8 0.00 0.08 0.00 88 1009.8
20260830223211 65 190 3.5 7.8 0.00 0.08 0.00 88 1009.9
20260830222710 65 181 2.6 6.1 0.00 0.08 0.00 87 1009.9
20260830222206 65 175 0.9 5.2 0.00 0.08 0.00 87 1009.9
20260830221708 65 163 0.9 1.7 0.00 0.08 0.00 86 1009.9
20260830221206 65 163 0.9 3.5 0.00 0.08 0.00 86 1010.0
20260830221147 65 163 1.7 3.5 0.00 0.08 0.00 86 1010.0
20260830220643 65 137 1.7 3.5 0.00 0.08 0.00 85 1010.0
20260830215732 65 166 1.7 4.3 0.00 0.08 0.08 85 1010.0
20260830215709 65 163 1.7 4.3 0.00 0.08 0.08 85 1010.0
20260830215126 66 153 1.7 4.3 0.00 0.08 0.08 84 1010.1
20260830214204 66 162 1.7 4.3 0.00 0.08 0.08 84 1010.1
20260830213705 66 172 2.6 4.3 0.00 0.08 0.08 84 1010.2
20260830213204 66 177 2.6 4.3 0.00 0.08 0.08 84 1010.3
20260830212706 66 167 2.6 4.3 0.00 0.08 0.08 83 1010.3
20260830212202 67 204 2.6 6.1 0.00 0.08 0.08 83 1010.4
20260830211705 67 166 3.5 6.1 0.00 0.08 0.08 83 1010.3
20260830211203 67 188 3.5 7.0 0.00 0.08 0.08 82 1010.5
20260830211141 67 202 3.5 7.0 0.00 0.08 0.08 82 1010.5
20260830210648 67 182 2.6 5.2 0.00 0.08 0.08 82 1010.5
20260830205704 67 174 2.6 5.2 0.00 0.08 0.08 82 1010.4
20260830205203 67 162 3.5 6.1 0.00 0.08 0.08 82 1010.4
20260830204705 68 187 4.3 7.8 0.00 0.08 0.08 81 1010.4
20260830204645 68 206 5.2 11.3 0.00 0.08 0.08 81 1010.5
20260830203704 68 175 5.2 11.3 0.00 0.08 0.08 82 1010.5
20260830203205 67 146 4.3 9.6 0.00 0.08 0.08 82 1010.4
20260830202704 67 154 2.6 8.7 0.00 0.08 0.08 83 1010.4
20260830202659 67 178 1.7 4.3 0.00 0.08 0.08 83 1010.5
20260830202125 67 131 1.7 5.2 0.00 0.08 0.08 82 1010.5
20260830201907 67 166 1.7 5.2 0.00 0.08 0.08 82 1010.5
20260830200702 67 161 0.9 2.6 0.00 0.08 0.08 82 1010.5
20260830200204 67 193 0.9 3.5 0.00 0.13 0.08 82 1010.6
20260830195704 67 172 0.9 4.3 0.00 0.42 0.08 82 1010.6
20260830195204 67 166 0.9 4.3 0.00 0.54 0.08 82 1010.6
20260830195145 68 166 0.9 2.6 0.00 0.55 0.08 82 1010.6
20260830194641 68 166 0.9 2.6 0.00 0.57 0.08 81 1010.6
20260830193703 68 166 0.0 1.7 0.00 0.60 0.08 81 1010.6
20260830193637 68 166 0.9 3.5 0.00 0.61 0.08 81 1010.6
20260830192706 68 166 0.9 3.5 0.00 0.61 0.08 81 1010.6
20260830192205 68 148 0.9 2.6 0.00 0.64 0.08 81 1010.7
20260830191706 68 148 0.9 2.6 0.00 0.65 0.08 80 1010.6
20260830191202 68 147 0.9 2.6 0.00 0.65 0.08 80 1010.6
20260830190705 69 145 0.9 2.6 0.00 0.65 0.08 80 1010.6
20260830190202 69 150 0.9 2.6 0.00 0.65 0.08 80 1010.6
20260830185703 69 150 0.9 2.6 0.00 0.65 0.08 80 1010.6
20260830185204 69 160 1.7 4.3 0.00 0.65 0.08 79 1010.6
20260830184705 69 162 1.7 4.3 0.00 0.65 0.08 79 1010.8
20260830184203 69 187 0.9 4.3 0.00 0.65 0.08 78 1010.7
20260830183703 69 157 1.7 4.3 0.00 0.65 0.08 78 1010.8
20260830183642 69 170 2.6 4.3 0.00 0.65 0.08 78 1010.8
20260830183135 69 144 2.6 6.1 0.00 0.65 0.08 78 1010.8
20260830182206 69 183 2.6 6.1 0.00 0.65 0.08 79 1010.8
20260830182127 70 180 2.6 6.1 0.00 0.65 0.08 80 1010.9
20260830181909 69 202 2.6 6.1 0.00 0.65 0.08 79 1010.9
20260830180704 70 154 2.6 5.2 0.00 0.65 0.08 81 1011.0
20260830180204 70 152 0.9 4.3 0.00 0.65 0.08 81 1010.9
20260830175703 70 162 0.9 1.7 0.00 0.65 0.08 80 1010.9
20260830175642 70 163 1.7 4.3 0.00 0.65 0.08 80 1010.8
20260830174703 70 181 2.6 5.2 0.00 0.65 0.08 80 1010.9
20260830174206 71 168 2.6 5.2 0.00 0.65 0.08 80 1011.0
20260830173703 71 154 2.6 6.1 0.00 0.65 0.08 79 1011.1
20260830173202 71 176 2.6 6.1 0.00 0.65 0.08 79 1011.2
20260830172703 71 157 1.7 5.2 0.00 0.65 0.08 78 1011.1
20260830172203 71 168 2.6 6.1 0.00 0.65 0.08 79 1011.2
20260830171704 71 172 1.7 6.1 0.00 0.65 0.08 79 1011.2
20260830171202 71 186 1.7 3.5 0.00 0.65 0.08 79 1011.4
20260830170703 71 169 2.6 6.1 0.00 0.65 0.08 78 1011.3
20260830170202 71 188 2.6 6.1 0.00 0.65 0.08 78 1011.2
20260830170140 71 185 2.6 7.0 0.00 0.65 0.08 78 1011.4
20260830165205 71 212 2.6 7.0 0.00 0.65 0.08 78 1011.4
20260830164705 71 179 2.6 6.1 0.00 0.65 0.08 78 1011.4
20260830164659 71 249 2.6 5.2 0.00 0.65 0.08 78 1011.4
20260830163702 71 179 2.6 6.1 0.00 0.65 0.08 78 1011.5
20260830163204 71 199 3.5 7.0 0.00 0.65 0.08 77 1011.4
20260830162703 71 205 3.5 7.0 0.00 0.65 0.08 77 1011.5
20260830162205 71 252 3.5 8.7 0.00 0.65 0.08 76 1011.5
20260830161703 71 248 3.5 8.7 0.00 0.65 0.08 76 1011.5
20260830161203 71 239 2.6 7.0 0.00 0.65 0.08 76 1011.5
20260830160700 72 229 2.6 7.0 0.00 0.65 0.08 76 1011.5
20260830160202 72 236 3.5 7.8 0.00 0.65 0.08 76 1011.5
20260830155701 72 209 3.5 8.7 0.00 0.65 0.08 75 1011.6
20260830155157 72 217 4.3 10.4 0.00 0.65 0.08 75 1011.6
20260830154649 72 222 4.3 10.4 0.00 0.65 0.08 74 1011.6
20260830154150 72 217 4.3 10.4 0.00 0.65 0.08 74 1011.6
20260830153652 72 226 3.5 7.8 0.00 0.65 0.08 74 1011.6
20260830153346 73 229 3.5 8.7 0.00 0.65 0.08 74 1011.6
20260830152854 73 235 3.5 8.7 0.00 0.65 0.08 74 1011.7
20260830152132 72 189 5.2 10.4 0.00 0.65 0.08 74 1011.8
20260830151147 72 164 5.2 10.4 0.00 0.65 0.08 74 1011.9
20260830150649 72 195 5.2 12.2 0.00 0.65 0.08 74 1012.0
20260830150147 72 236 7.0 13.9 0.00 0.65 0.08 73 1012.0
20260830145649 72 201 7.0 13.9 0.00 0.65 0.08 74 1011.9
20260830145146 72 241 6.1 13.0 0.00 0.65 0.08 74 1012.0
20260830144649 72 229 6.1 13.0 0.00 0.65 0.08 74 1012.0
20260830144146 72 204 7.0 13.0 0.00 0.65 0.08 74 1012.0
20260830144133 72 204 6.1 12.2 0.00 0.65 0.08 73 1012.0
20260830143148 71 238 6.1 12.2 0.00 0.65 0.08 74 1012.1
20260830142648 71 214 6.1 12.2 0.00 0.65 0.08 73 1012.0
20260830142145 72 230 6.1 13.9 0.00 0.65 0.08 74 1012.1
20260830141645 71 268 7.8 16.5 0.00 0.65 0.08 72 1012.1
20260830141145 72 193 7.8 16.5 0.00 0.65 0.08 73 1012.1
20260830140645 72 272 7.0 13.9 0.00 0.65 0.08 73 1012.1
20260830140147 72 314 7.0 15.6 0.00 0.65 0.08 74 1012.1
20260830135644 72 259 7.8 15.6 0.00 0.65 0.08 74 1012.1
20260830135144 72 238 8.7 15.6 0.00 0.65 0.08 73 1012.0
20260830135123 72 195 9.6 15.6 0.00 0.66 0.08 72 1012.0
20260830134146 72 237 8.7 18.2 0.00 0.66 0.08 73 1011.9
20260830133646 72 221 8.7 18.2 0.00 0.66 0.08 74 1012.0
20260830133147 72 229 7.8 16.5 0.00 0.66 0.08 73 1012.1
20260830132648 72 233 7.8 16.5 0.00 0.66 0.08 74 1012.0
20260830132149 72 225 7.8 16.5 0.00 0.66 0.08 74 1012.0
20260830131644 72 248 7.8 19.1 0.00 0.66 0.08 73 1011.9
20260830131143 73 208 7.0 19.1 0.00 0.66 0.08 73 1011.9
20260830130645 73 211 7.8 17.4 0.00 0.66 0.08 75 1011.9
20260830130143 72 236 7.8 17.4 0.00 0.66 0.08 76 1012.0
20260830125643 72 221 7.8 17.4 0.00 0.67 0.08 77 1012.0
20260830125142 72 235 7.8 13.9 0.00 0.67 0.08 75 1011.9
20260830124641 73 243 7.0 11.3 0.00 0.67 0.08 76 1011.9
20260830124145 71 245 6.1 12.2 0.00 0.67 0.08 77 1012.0
20260830124127 72 216 6.1 14.8 0.00 0.67 0.08 77 1011.9
20260830123143 72 167 7.0 16.5 0.00 0.67 0.08 76 1011.9
20260830122641 72 231 7.0 16.5 0.00 0.67 0.08 77 1011.8
20260830122144 71 202 7.8 15.6 0.00 0.67 0.08 78 1011.9
20260830121643 71 212 8.7 16.5 0.00 0.67 0.08 77 1011.8
20260830121143 71 234 8.7 16.5 0.00 0.67 0.08 77 1011.8
20260830120641 72 237 8.7 17.4 0.00 0.67 0.08 77 1011.7
20260830120145 72 254 7.8 17.4 0.00 0.67 0.08 78 1011.6
20260830115645 72 233 7.0 16.5 0.00 0.67 0.08 77 1011.6
20260830115142 72 191 7.8 17.4 0.00 0.67 0.08 77 1011.6
20260830114639 71 199 7.8 17.4 0.00 0.68 0.08 78 1011.6
20260830114633 71 218 8.7 16.5 0.00 0.68 0.08 79 1011.5
20260830113636 71 204 9.6 15.6 0.00 0.68 0.08 78 1011.5
20260830113138 70 264 10.4 16.5 0.00 0.68 0.08 78 1011.4
20260830112639 71 196 10.4 16.5 0.00 0.68 0.08 78 1011.3
20260830112136 71 234 9.6 17.4 0.00 0.68 0.08 78 1011.3
20260830112116 71 208 8.7 19.1 0.00 0.68 0.08 77 1011.2
20260830111137 71 243 8.7 19.1 0.00 0.68 0.08 79 1011.2
20260830110635 71 162 9.6 18.2 0.00 0.68 0.08 80 1011.2
20260830110138 70 210 9.6 18.2 0.00 0.68 0.08 80 1011.2
20260830105639 70 206 8.7 18.2 0.00 0.68 0.08 81 1011.1
20260830105130 70 244 8.7 18.2 0.00 0.68 0.08 81 1011.1
20260830105109 70 206 8.7 17.4 0.00 0.68 0.08 82 1011.0
20260830104132 69 225 9.6 20.0 0.00 0.68 0.08 84 1011.0
20260830103632 69 264 10.4 20.0 0.00 0.68 0.08 83 1011.1
20260830103134 69 262 10.4 20.0 0.00 0.68 0.08 83 1011.1
20260830103113 69 225 9.6 20.0 0.00 0.68 0.08 83 1011.0
20260830102133 69 189 8.7 20.0 0.00 0.68 0.08 84 1011.0
20260830101634 69 204 8.7 20.0 0.00 0.68 0.08 84 1010.9
20260830101133 69 235 8.7 24.3 0.00 0.68 0.08 87 1010.8
20260830100631 69 175 10.4 24.3 0.00 0.68 0.08 87 1010.7
20260830100610 68 163 10.4 20.9 0.00 0.68 0.08 89 1010.7
20260830095633 68 239 7.8 20.0 0.00 0.68 0.08 90 1010.7
20260830095135 68 19 7.0 20.0 0.00 0.68 0.08 92 1010.6
20260830094632 67 230 8.7 22.6 0.00 0.68 0.08 94 1010.6
20260830094130 66 262 7.0 22.6 0.00 0.68 0.08 96 1010.7
20260830093625 66 284 6.1 14.8 0.00 0.68 0.08 97 1010.7
20260830093120 65 224 6.1 13.0 0.00 0.68 0.08 97 1010.7
20260830093102 65 215 7.0 13.0 0.00 0.68 0.08 97 1010.6
20260830092108 65 214 6.1 12.2 0.01 0.68 0.08 97 1010.6
20260830091604 65 210 6.1 13.0 0.01 0.68 0.08 97 1010.5
20260830091104 65 233 6.1 18.2 0.01 0.68 0.08 97 1010.5
20260830090607 65 228 6.1 18.2 0.02 0.68 0.08 98 1010.3
20260830090602 65 202 7.0 15.6 0.02 0.68 0.08 98 1010.3
20260830085607 65 185 7.0 15.6 0.02 0.68 0.08 98 1010.3
20260830085102 65 176 6.1 12.2 0.02 0.68 0.08 98 1010.3
20260830084605 65 227 6.1 12.2 0.03 0.68 0.08 98 1010.3
20260830084103 65 197 6.1 12.2 0.03 0.68 0.08 98 1010.2
20260830083603 65 191 6.1 14.8 0.04 0.68 0.08 98 1010.1
20260830083104 64 228 7.0 14.8 0.04 0.68 0.08 98 1010.2
20260830082604 64 208 7.0 13.0 0.04 0.68 0.07 98 1010.1
20260830082107 64 230 5.2 13.0 0.03 0.67 0.07 97 1010.0
20260830081607 64 176 4.3 10.4 0.03 0.67 0.07 98 1010.0
20260830081106 64 220 5.2 12.2 0.03 0.67 0.07 98 1009.9
20260830081043 64 204 5.2 12.2 0.02 0.66 0.06 98 1009.9
20260830080104 64 206 4.3 10.4 0.02 0.66 0.06 98 1009.9
20260830075600 64 215 3.5 8.7 0.02 0.66 0.06 97 1009.8
20260830075054 64 212 4.3 11.3 0.02 0.66 0.06 97 1009.7
20260830075026 64 181 6.1 13.0 0.01 0.65 0.05 98 1009.7
20260830074042 64 207 6.1 13.9 0.01 0.65 0.04 97 1009.7
20260830073538 64 194 7.0 15.6 0.00 0.64 0.04 97 1009.6
20260830073235 64 188 7.0 17.4 0.00 0.64 0.04 97 1009.5
20260830072737 64 229 7.0 17.4 0.00 0.64 0.04 98 1009.4
20260830071533 64 221 6.1 16.5 0.00 0.64 0.04 98 1009.3
20260830071033 63 266 7.0 15.6 0.00 0.64 0.04 98 1009.3
20260830070535 63 207 7.8 15.6 0.00 0.64 0.04 98 1009.2
20260830070525 63 231 7.0 13.9 0.00 0.64 0.04 98 1009.1
20260830065533 63 202 7.0 13.0 0.00 0.64 0.04 97 1009.0
20260830065031 63 171 6.1 13.9 0.00 0.64 0.04 97 1009.0
20260830064532 63 196 7.0 15.6 0.00 0.64 0.04 97 1009.0
20260830064035 63 183 7.0 15.6 0.00 0.64 0.04 97 1008.9
20260830063533 63 195 6.1 15.6 0.00 0.64 0.04 97 1008.9
20260830063034 63 160 7.0 17.4 0.00 0.64 0.04 97 1008.9
20260830062530 63 201 7.0 17.4 0.01 0.64 0.04 97 1008.8
20260830062032 63 214 6.1 13.9 0.01 0.64 0.04 97 1008.8
20260830061532 63 223 6.1 13.9 0.01 0.64 0.04 97 1008.6